Powrót do katalogu

SHIYAN 3

SY-3

AktywnyNaukaSSO
NORAD 33433·PAYLOAD·🇨🇳 China

Wystrzelony Nov 5, 2008 z Jiuquan Satellite Launch Center

Loading…

Następne Przeloty (najbliższe 24 godziny)

TLE

ŚwieżeSource: Space-Track

Epoka: Sep 14, 2026, 11:59 UTC

1 33433U 08056A   26257.49983467  .00000079  00000-0  46850-4 0  9990
2 33433  98.6032 283.1556 0012764 228.3628 131.6462 14.30826138931571

Śledź SHIYAN 3 w czasie rzeczywistym z AllMySat

Download on the App Store